SCP
0 0 0 0 0 0 0 0 0 0 0 0 0 0 0 0 0 0 0 0 0 0 0 0 0 0 0 0 0 0 0 0 0 0 0 0 0 0
0 0 0 0 0 0 0 0 0 0 0 0 0 0 0 0 0 0 0 0 0 0 0 0 0 0 0 0 0 0 0 0 0 0 0 0 0 0
0 0 0 0 0 0 0 0 0 0 0 0 0 0 0 0 0 0 0 0 0 0 0 0 0 0 0 0 0 0 0 0 0 0 0 0 0 0
0 0 0 0 0 0 0 0 0 0 0 0 0 0 0 0 0 0 0 0 0 0 0 0 0 0 0 0 0 0 0 0 0 0 0 0 0 0
0 0 0 0 0 0 0 0 0 0 0 0 0 0 0 0 0 0 0 0 0 0 0 0 0 0 0 0 0 0 0 0 0 0 0 0 0 0
0 0 0 0 0 0 0 0 0 0 0 0 0 0 0 0 0 0 0 0 0 0 0 0 0 0 0 0 0 0 0 0 0 0 0 0 0 0
0 0 0 0 0 0 0 0 0 0 0 0 0 0 0 0 0 0 0 0 0 0 0 0 0 0 0 0 0 0 0 0 0 0 0 0 0 0
0 0 0 0 0 0 0 0 0 0 0 0 0 0 0 0 0 0 0 0 0 0 0 0 0 0 0 0 0 0 0 0 0 0 0 0 0 0
0 0 0 0 0 0 0 0 0 0 0 0 0 0 0 0 0 0 0 0 0 0 0 0 0 0 0 0 0 0 0 0 0 0 0 0 0 0
0 0 0 0 0 0 0 0 0 0 0 0 0 0 0 0 0 0 0 0 0 0 0 0 0 0 0 0 0 0 0 0 0 0 0 0 0 0
0 0 0 0 0 0 0 0 0 0 0 0 0 0 0 0 0 0 0 0 0 0 0 0 0 0 0 0 0 0 0 0 0 0 0 0 0 0
0 0 0 0 0 0 0 0 0 0 0 0 0 0 0 0 0 0 0 0 0 0 0 0 0 0 0 0 0 0 0 0 0 0 0 0 0 0
0 0 0 0 0 0 0 0 0 0 0 0 0 0 0 0 0 0 0 0 0 0 0 0 0 0 0 0 0 0 0 0 0 0 0 0 0 0
0 0 0 -0 0 0 0 0 0 0 0 0 0 0 0 0 0 0 0 0 0 0 0 0 0 0 0 0 0 0 0 0 0 0 0 0 0 0
0 0 0 0 0 0 0 0 0 0 0 0 0 0 0 0 0 0 0 0 0 0 0 0 0 0 0 0 0 0 0 0 0 0 0 0 0 0
0 0 0 0 0 0 0 0 0 0 0 0 0 0 0 0 0 0 0 0 0 0 0 0 0 0 0 0 0 0 0 0 0 0 0 0 0 0
0 0 0 0 0 0 0 0 0 0 0 0 0 0 0 0 0 0 0 0 0 0 0 0 0 0 0 0 0 0 0 0 0 0 0 0 0 0
0 0 0 0 0 0 0 0 0 0 0 0 0 0 0 0 0 0 0 0 0 0 0 0 0 0 0 0 0 0 0 0 0 0 0 0 0 0
0 0 0 0 0 0 0 0 0 0 0 0 0 0 0 0 0 0 0 0 0 0 0 0 0 0 0 0 0 0 0 0 0 0 0 0 0 0
0 0 0 0 0 0 0 0 0 0 0 0 0 0 0 0 0 0 0 0 0 0 0 0 0 0 0 0 0 0 0 0 0 0 0 0 0 0
0 0 0 0 0 0 0 0 0 0 0 0 0 0 0 0 0 0 0 0 0 0 0 0 0 0 0 0 0 0 0 0 0 0 0 0 0 0
0 0 0 0 0 0 0 0 0 0 0 0 0 0 0 0 0 0 0 0 0 0 0 0 0 0 0 0 0 0 0 0 0 0 0 0 0 0
0 0 0 0 0 0 0 0 0 0 0 0 0 0 0 0 0 0 0 0 0 0 0 0 0 0 0 0 0 0 0 0 0 0 0 0 0 0
Wind_Speed
2 2 1 1 1 1 2 3 3 1 3 3 3 2 2 3 5 4 5 9 12 12 12 12 12 12 12 12 12 12 12 11 11 11 11 11 11 12
2 2 1 0 1 1 1 1 2 3 2 3 3 3 2 3 4 4 5 8 11 12 12 13 13 13 13 13 13 13 13 13 13 13 13 13 12 13
1 2 1 1 0 1 1 1 1 2 2 3 2 2 2 2 2 2 3 4 5 10 12 13 13 14 14 14 14 14 14 14 14 14 14 14 14 14
2 2 1 1 1 0 1 1 0 1 2 2 2 2 2 2 2 2 3 3 3 7 10 11 11 12 12 13 13 13 13 13 14 14 14 14 15 15
2 2 1 2 1 0 1 0 0 1 1 1 2 2 2 2 2 3 3 3 4 5 6 6 7 9 10 10 11 12 13 13 13 14 14 14 14 15
2 3 2 2 1 1 1 1 1 1 1 1 1 2 2 2 2 2 3 3 4 4 5 5 6 7 8 10 10 11 12 12 13 13 14 14 14 15
4 4 4 5 5 3 2 1 2 1 1 1 1 2 2 2 2 2 3 4 3 2 3 4 4 4 5 7 8 9 10 11 11 12 13 14 14 14
5 5 5 7 7 8 8 7 5 2 1 1 1 1 2 2 2 2 2 3 4 3 3 5 3 4 4 4 7 9 9 9 10 10 11 12 13 13
5 5 5 6 7 5 8 10 10 10 6 1 1 1 2 2 2 3 2 2 4 4 3 4 3 4 4 5 9 9 9 9 9 9 9 10 11 12
7 6 6 5 6 5 5 6 5 5 5 4 1 2 2 3 2 2 3 3 4 4 1 3 3 4 5 5 7 8 9 10 11 10 10 10 10 11
7 7 6 6 8 8 6 5 5 5 6 7 6 6 7 7 4 2 3 3 4 4 2 2 3 4 4 4 5 7 9 11 12 12 12 11 11 10
5 6 8 7 8 8 5 4 5 4 5 7 7 8 7 8 8 3 1 2 3 4 3 3 3 4 5 4 3 5 6 9 11 12 12 12 11 6
4 3 3 6 7 7 5 3 3 3 3 4 4 5 5 5 6 5 3 1 2 3 4 3 3 3 3 5 4 5 5 5 6 7 9 11 11 7
3 2 2 6 7 8 5 6 7 6 3 4 4 4 4 4 5 5 5 4 3 4 5 3 2 3 4 5 6 4 5 6 6 6 6 8 9 10
3 4 5 7 7 6 9 9 7 5 4 4 3 3 3 4 4 4 5 5 5 5 4 3 3 4 4 5 6 6 6 6 5 5 5 6 6 6
4 5 7 9 7 6 7 6 5 4 3 2 2 3 3 4 4 3 4 4 5 5 6 5 5 4 4 6 6 7 6 5 5 7 7 6 6 6
3 4 5 5 5 5 4 4 4 4 4 3 3 3 3 4 4 4 3 4 4 5 6 6 6 5 6 7 7 7 6 6 7 7 7 8 8 7
6 5 4 4 3 3 3 3 3 3 3 2 3 3 3 4 4 4 4 4 5 5 6 6 7 7 6 5 6 6 6 6 7 8 7 8 9 8
6 4 3 3 2 2 2 2 2 3 3 3 3 3 4 4 4 5 5 5 5 6 6 6 6 5 8 10 7 5 7 9 8 8 7 7 9 9
4 3 2 2 2 2 2 2 2 3 3 3 3 3 4 4 5 5 6 6 7 7 7 6 5 5 7 8 8 10 11 8 8 9 9 9 8 10
3 2 2 2 1 2 2 2 2 2 3 3 3 4 4 4 5 6 6 9 8 7 8 8 8 12 8 6 7 8 8 9 11 9 9 9 9 7
2 2 2 1 1 1 2 2 2 2 3 3 4 4 5 5 6 7 7 7 7 8 9 9 9 8 5 7 9 10 10 11 11 13 12 9 7 6
2 1 1 1 1 1 1 1 2 2 3 4 4 5 5 5 6 6 7 7 8 9 9 9 8 6 6 7 8 9 11 11 8 8 8 10 12 13
Wind_Direction
160 150 145 174 125 137 147 150 150 199 288 289 298 290 260 238 233 216 222 227 225 227 229 232 234 236 238 240 240 241 242 243 245 247 248 250 252 255
166 156 147 182 60 75 122 138 149 163 230 273 271 290 290 266 236 226 236 241 236 237 238 239 241 242 243 243 243 244 244 245 245 246 247 248 249 251
164 152 193 178 77 28 68 93 126 149 210 278 280 305 331 321 307 269 258 253 255 249 248 248 249 249 248 248 248 248 248 249 250 250 250 249 249 250
169 144 201 141 111 37 69 56 74 166 182 268 300 318 320 315 308 296 288 279 271 270 259 256 258 260 260 258 256 254 253 253 253 253 253 252 252 252
161 155 174 129 114 42 67 45 343 40 137 204 290 307 315 341 341 331 328 324 310 299 286 276 280 280 276 272 268 264 261 258 258 257 256 254 254 253
125 122 111 110 117 99 70 26 39 40 39 46 331 330 329 334 5 342 332 330 317 322 335 336 328 313 297 286 280 275 269 265 262 259 257 255 253 253
100 89 80 78 73 68 70 55 55 51 36 31 356 347 334 347 344 329 319 314 307 335 335 326 325 320 316 305 298 295 291 283 275 268 263 259 256 254
102 86 72 57 56 58 61 60 60 67 65 48 344 316 301 307 313 321 321 338 313 320 340 308 313 309 310 307 317 314 311 306 299 289 279 271 264 260
96 89 74 55 50 57 58 54 47 44 47 79 16 317 307 303 311 314 311 291 274 292 326 297 309 304 307 320 327 329 332 332 327 318 307 293 279 269
83 86 83 59 49 62 67 56 42 28 24 36 35 310 311 303 284 282 282 294 286 289 299 285 305 301 307 304 315 336 342 336 329 323 314 304 294 285
75 74 76 66 52 62 66 56 36 12 13 18 13 5 357 355 350 3 348 346 317 305 321 297 295 299 293 289 304 328 329 325 322 318 313 309 304 298
73 63 61 62 55 59 66 60 37 359 358 5 10 9 9 9 15 24 352 334 314 304 317 324 303 322 310 294 307 318 317 313 314 311 309 308 308 305
79 58 40 45 52 54 63 66 44 17 11 15 13 10 9 10 7 5 360 334 310 291 307 323 308 310 285 296 300 297 304 307 308 303 304 306 307 302
83 55 37 47 48 45 48 41 38 41 36 31 25 11 3 355 346 344 343 334 304 280 294 314 301 300 298 296 294 297 302 298 296 296 296 302 302 298
63 60 60 58 52 44 41 44 44 44 43 35 15 347 331 325 331 334 334 335 326 317 326 317 307 296 284 285 290 292 301 298 293 299 301 300 295 296
44 50 59 60 56 46 41 40 40 41 45 30 350 331 332 341 342 338 332 334 331 317 313 312 308 303 294 285 285 291 294 292 301 301 298 293 289 283
63 56 51 48 45 39 34 29 27 27 27 12 5 354 347 345 333 332 330 329 322 311 313 315 312 299 280 277 286 287 293 296 296 301 303 300 292 284
79 67 60 58 56 46 36 19 13 11 3 3 2 354 344 337 332 330 331 327 317 308 306 308 319 321 319 296 256 278 293 296 298 299 295 294 294 291
78 74 68 59 53 44 32 19 358 346 350 2 359 347 338 333 330 327 326 322 316 310 307 307 314 318 320 318 297 274 293 299 299 299 294 289 290 293
72 77 66 57 50 34 14 3 356 355 358 354 346 337 332 327 324 320 318 315 314 312 310 310 308 307 304 301 297 296 293 291 297 298 298 295 286 282
63 61 60 59 44 26 11 9 13 5 352 341 332 325 321 320 315 312 311 311 311 309 310 308 300 303 295 291 294 296 296 293 290 290 296 300 303 300
72 64 51 52 44 26 18 19 17 358 342 331 320 316 313 310 308 309 310 310 307 304 302 300 302 305 302 300 301 301 302 306 305 299 290 283 297 304
89 77 69 44 36 34 35 26 8 333 322 317 313 311 311 310 305 302 302 302 303 304 307 308 309 308 303 298 299 300 302 307 311 316 311 307 301 291